EW4694 Weather Reports


Display with metric or nautical units.
time (UTC)temp
F
wind
direction
speed
MPH
gust
MPH
rain 1hr
in
rain 24hr
in
rain mn
in
humidity
%
barometer
mb
20240623104557 0 0.0 0.0 0.00 0.00 0.00 1010.4
20240623103029 0 0.0 0.0 0.00 0.00 0.00 1010.5
20240623101526 69 313 0.0 0.0 0.00 0.00 0.00 1 1010.6
20240623100021 69 146 0.0 0.0 0.00 0.00 0.00 1 1010.7
20240623094505 68 139 0.0 0.0 0.00 0.00 0.00 1 1010.7
20240623093100 68 144 0.0 0.0 0.00 0.00 0.00 1 1010.7
20240623091557 68 144 0.0 0.0 0.00 0.00 0.00 1 1010.8
20240623090058 68 123 0.0 0.0 0.00 0.00 0.00 1 1010.9
20240623084549 68 137 0.0 0.0 0.00 0.00 0.00 1 1011.1
20240623083051 68 146 0.0 0.0 0.00 0.00 0.00 1 1011.2
20240623081538 69 146 0.0 0.0 0.00 0.00 0.00 1 1011.1
20240623080017 69 142 0.0 0.0 0.00 0.00 0.00 1 1011.3
20240623074513 69 142 0.0 0.0 0.00 0.00 0.00 1 1011.4
20240623073113 69 142 0.0 0.0 0.00 0.00 0.00 1 1011.5
20240623071605 69 143 0.0 0.0 0.00 0.00 0.00 1 1011.7
20240623070047 68 143 0.0 0.0 0.00 0.00 0.00 1 1011.7
20240623064522 68 143 0.0 0.0 0.00 0.00 0.00 1 1011.5
20240623063020 68 143 0.0 0.0 0.00 0.00 0.00 1 1011.6
20240623061556 68 143 0.0 0.0 0.00 0.00 0.00 1 1011.7
20240623060100 68 145 0.0 0.0 0.00 0.00 0.00 1 1011.9
20240623054539 68 145 0.0 0.0 0.00 0.00 0.00 1 1012.1
20240623053032 68 146 0.0 0.0 0.00 0.00 0.00 1 1012.5
20240623051533 68 146 0.0 0.0 0.00 0.00 0.00 1 1012.6
20240623050025 69 146 0.0 0.0 0.00 0.00 0.00 1 1012.8
20240623044519 69 146 0.0 0.0 0.00 0.00 0.00 1 1012.9
20240623043015 69 146 0.0 0.0 0.00 0.00 0.00 1 1012.8
20240623041525 70 146 0.0 0.0 0.00 0.00 0.00 1 1012.9
20240623040005 70 146 0.0 0.0 0.00 0.00 0.00 1 1013.0
20240623034550 70 146 0.0 0.0 0.00 0.00 0.00 1 1012.8
20240623033046 71 146 0.0 0.0 0.00 0.00 0.00 1 1012.8
20240623031518 71 146 0.0 0.0 0.00 0.00 0.00 1 1012.9
20240623030030 71 146 0.0 0.0 0.00 0.00 0.00 1 1012.8
20240623024552 72 146 0.0 0.0 0.00 0.00 0.00 1 1012.8
20240623023050 72 146 0.0 0.0 0.00 0.00 0.00 1 1012.9
20240623021535 73 146 0.0 0.0 0.00 0.00 0.00 2 1013.0
20240623020022 74 146 0.0 0.0 0.00 0.00 0.00 9 1013.1
20240623014605 75 146 0.0 0.0 0.00 0.00 0.00 11 1013.1
20240623013059 76 146 0.0 0.0 0.00 0.00 0.00 14 1013.0
20240623011534 77 146 0.0 0.0 0.00 0.00 0.00 22 1012.8
20240623010041 78 146 0.0 0.0 0.00 0.00 0.00 30 1012.8
20240623004508 80 146 0.0 0.0 0.00 0.00 0.00 41 1012.8
20240623003005 83 146 0.0 0.0 0.00 0.00 0.00 52 1012.9
20240623001544 85 146 0.0 0.0 0.00 0.00 0.00 56 1012.9
20240623000040 86 146 0.0 0.0 0.00 0.00 0.00 58 1013.0
20240622234518 87 146 0.0 0.0 0.00 0.00 0.00 57 1013.0
20240622233114 88 146 0.0 0.0 0.00 0.00 0.00 58 1013.0
20240622231552 90 218 0.0 0.0 0.00 0.00 0.00 56 1012.9
20240622230049 92 186 0.0 0.0 0.00 0.00 0.00 53 1013.0
20240622224526 93 273 0.0 0.0 0.00 0.00 0.00 50 1013.0
20240622223025 93 259 0.0 0.0 0.00 0.00 0.00 52 1012.9
20240622221607 93 252 0.0 0.0 0.00 0.00 0.00 52 1013.0
20240622220057 93 304 0.0 0.0 0.00 0.00 0.00 48 1013.1
20240622214538 93 325 0.0 0.0 0.00 0.00 0.00 46 1013.3
20240622213040 93 297 0.0 0.0 0.00 0.00 0.00 47 1013.5
20240622211510 93 285 0.0 0.0 0.00 0.00 0.00 47 1013.7
20240622210019 93 315 0.0 0.0 0.00 0.00 0.00 48 1013.8
20240622204545 93 344 0.0 0.0 0.00 0.00 0.00 49 1014.0
20240622203040 93 304 0.0 0.0 0.00 0.00 0.00 48 1014.2
20240622201518 93 315 0.0 0.0 0.00 0.00 0.00 48 1014.4
20240622200021 93 317 0.0 0.0 0.00 0.00 0.00 51 1014.6
20240622194553 93 261 0.0 0.0 0.00 0.00 0.00 50 1014.7
20240622193048 93 306 0.0 0.0 0.00 0.00 0.00 50 1014.9
20240622191526 92 311 0.0 0.0 0.00 0.00 0.00 49 1015.1
20240622190021 92 246 0.0 0.0 0.00 0.00 0.00 49 1015.3
20240622184506 92 350 0.0 0.0 0.00 0.00 0.00 49 1015.5
20240622183001 93 269 0.0 0.0 0.00 0.00 0.00 49 1016.0
20240622181602 93 273 0.0 0.0 0.00 0.00 0.00 49 1016.2
20240622180108 92 215 0.0 0.0 0.00 0.00 0.00 50 1016.4
20240622174605 92 251 0.0 0.0 0.00 0.00 0.00 53 1016.5
20240622173103 91 272 0.0 0.0 0.00 0.00 0.00 50 1016.7
20240622171547 91 333 0.0 0.0 0.00 0.00 0.00 51 1017.0
20240622170046 91 258 0.0 0.0 0.00 0.00 0.00 53 1017.2
20240622164517 91 350 0.0 0.0 0.00 0.00 0.00 53 1017.4
20240622163016 90 277 0.0 0.0 0.00 0.00 0.00 54 1017.5
20240622161548 89 277 0.0 0.0 0.00 0.00 0.00 54 1017.7
20240622160046 89 171 0.0 0.0 0.00 0.00 0.00 55 1017.7
20240622154522 89 255 0.0 0.0 0.00 0.00 0.00 56 1018.0
20240622153023 88 263 0.0 0.0 0.00 0.00 0.00 56 1018.1
20240622151558 87 284 0.0 0.0 0.00 0.00 0.00 57 1018.2
20240622150054 87 257 0.0 0.0 0.00 0.00 0.00 56 1018.3
20240622144538 86 243 0.0 0.0 0.00 0.00 0.00 56 1018.5
20240622143032 85 271 0.0 0.0 0.00 0.00 0.00 55 1018.7
20240622141527 84 313 0.0 0.0 0.00 0.00 0.00 53 1019.0
20240622140033 83 282 0.0 0.0 0.00 0.00 0.00 51 1019.2
20240622134520 81 275 0.0 0.0 0.00 0.00 0.00 45 1019.5
20240622133024 80 267 0.0 0.0 0.00 0.00 0.00 38 1019.6
20240622131510 78 131 0.0 0.0 0.00 0.00 0.00 8 1019.8
20240622130006 75 170 0.0 0.0 0.00 0.00 0.00 1 1019.8
20240622124501 73 171 0.0 0.0 0.00 0.00 0.00 1 1019.8
20240622123052 72 27 0.0 0.0 0.00 0.00 0.00 1 1019.9
20240622121537 71 27 0.0 0.0 0.00 0.00 0.00 1 1019.9
20240622120035 69 231 0.0 0.0 0.00 0.00 0.00 1 1019.9
20240622114529 68 236 0.0 0.0 0.00 0.00 0.00 1 1019.9
20240622113025 67 236 0.0 0.0 0.00 0.00 0.00 1 1019.8
20240622110019 65 236 0.0 0.0 0.00 0.00 0.00 1 1019.8